Weather reports worldwide

Advertisment
Kaisersbach-Cronhütte, Germany (10747): temperature & dewpoint: 10.11.2018 05:00:00 - 16.11.2018 05:00:00 (CET)Kaisersbach-Cronhütte, Germany (10747): temperature 5cm & temperature -5cm: 10.11.2018 05:00:00 - 16.11.2018 05:00:00 (CET)Kaisersbach-Cronhütte, Germany (10747): temperature -20cm & temperature -100cm: 10.11.2018 05:00:00 - 16.11.2018 05:00:00 (CET)Kaisersbach-Cronhütte, Germany (10747): wind speed & gusts: 10.11.2018 05:00:00 - 16.11.2018 05:00:00 (CET)Kaisersbach-Cronhütte, Germany (10747): wind direction: 10.11.2018 05:00:00 - 16.11.2018 05:00:00 (CET)Kaisersbach-Cronhütte, Germany (10747): reduced air pressure: 10.11.2018 05:00:00 - 16.11.2018 05:00:00 (CET)Kaisersbach-Cronhütte, Germany (10747): visibility: 10.11.2018 05:00:00 - 16.11.2018 05:00:00 (CET)Kaisersbach-Cronhütte, Germany (10747): sunshine duration: 10.11.2018 05:00:00 - 16.11.2018 05:00:00 (CET)Kaisersbach-Cronhütte, Germany (10747): precipitation: 10.11.2018 05:00:00 - 16.11.2018 05:00:00 (CET)
Date & Time tt [°C] td [°C] tt 5cm [°C] tt -5cm [°C] tt -20cm [°C] tt -100cm [°C] ff [km/h] ff [kn] fx [km/h] fx [kn] dd ppp [hPa] vv [km] sd [min] rr [mm]
16.11.2018 05:00:00 2,0 1,3 0,5 2,4 5,6 10,2 7 4 11 6 ENE 1029,0 3,5 0 0,0
16.11.2018 04:00:00 3,1 1,9 1,1 3,2 5,7 10,2 6 3 13 7 E 1028,9 4,3 0 0,0
16.11.2018 03:00:00 2,9 2,0 2,1 3,1 5,9 10,2 4 2 16 8 ESE 1029,0 4,1 0 0,0
16.11.2018 02:00:00 2,9 2,0 1,6 3,0 6,1 10,2 7 4 16 9 ESE 1029,1 5 0 0,0
16.11.2018 01:00:00 0,9 0,6 -0,3 2,8 6,3 10,2 5 3 12 7 E 1029,6 4,1 0 0,0
16.11.2018 00:00:00 1,0 0,6 -1,7 3,5 6,6 10,2 0 0 4 2 N 1029,6 1,9 0 0,0
15.11.2018 23:00:00 2,7 1,7 0,1 4,6 6,7 10,3 4 2 13 7 E 1028,8 8 0 0,0
15.11.2018 22:00:00 4,1 2,4 4,0 5,3 6,8 10,3 6 4 16 9 ESE 1028,5 11 0 0,0
15.11.2018 21:00:00 4,2 2,8 4,2 5,5 6,8 10,3 7 4 18 10 SE 1028,4 11 0 0,0
15.11.2018 20:00:00 3,9 2,8 3,9 5,6 6,9 10,3 7 4 14 8 SE 1028,6 12 0 0,0
15.11.2018 19:00:00 3,7 2,8 3,9 5,7 7,0 10,3 4 2 15 8 SE 1028,3 11 0 0,0
15.11.2018 18:00:00 3,6 3,0 3,7 5,9 7,0 10,3 9 5 18 10 E 1028,3 9 0 0,0
15.11.2018 17:00:00 4,1 3,4 4,4 6,3 7,1 10,3 6 3 13 7 E 1027,9 11 0 0,0
15.11.2018 16:00:00 4,3 3,3 4,7 6,7 7,0 10,3 9 5 16 9 E 1027,9 18 0 0,0
15.11.2018 15:00:00 4,7 3,7 5,3 6,9 7,0 10,3 7 4 18 10 E 1027,8 18 0 0,0
15.11.2018 14:00:00 4,7 3,8 5,5 7,1 6,9 10,3 10 5 20 11 ESE 1028,1 17 0 0,0
15.11.2018 13:00:00 4,3 3,5 5,4 7,1 6,7 10,3 8 5 17 9 ENE 1028,2 16 0 0,0
15.11.2018 12:00:00 4,0 3,5 5,2 6,8 6,6 10,3 8 5 16 9 E 1028,7 15 0 0,0
15.11.2018 11:00:00 3,5 3,1 4,5 6,2 6,5 10,3 5 3 11 6 SE 1029,1 4,4 0 0,0
15.11.2018 10:00:00 3,0 2,8 3,6 5,6 6,5 10,3 4 2 11 6 ESE 1029,0 0,3 0 0,0
15.11.2018 09:00:00 2,7 2,4 3,0 5,2 6,5 10,3 7 4 14 8 SSE 1029,0 0,3 0 0,0
15.11.2018 08:00:00 2,5 2,3 2,7 5,1 6,6 10,4 4 2 9 5 SE 1029,0 0,2 0 0,0
15.11.2018 07:00:00 2,6 2,6 2,8 5,1 6,7 10,4 5 3 10 6 SSE 1028,9 0,2 0 0,0
15.11.2018 06:00:00 2,8 2,7 3,0 5,2 6,7 10,4 7 4 11 6 E 1028,8 0,2 0 0,0
15.11.2018 05:00:00 3,1 3,1 3,2 5,3 6,8 10,4 6 4 15 8 SE 1028,5 0,3 0 0,0
15.11.2018 04:00:00 3,4 3,3 3,5 5,4 6,8 10,4 7 4 14 8 ESE 1028,7 0,2 0 0,0
15.11.2018 03:00:00 3,4 3,4 3,5 5,4 6,9 10,4 9 5 14 8 E 1029,0 0,3 0 0,0
15.11.2018 02:00:00 3,6 3,4 3,7 5,5 6,9 10,4 7 4 16 9 ESE 1028,8 0,4 0 0,0
15.11.2018 01:00:00 3,7 3,4 3,8 5,5 7,0 10,4 8 5 18 10 ESE 1029,1 1,3 0 0,0
15.11.2018 00:00:00 3,6 3,4 3,7 5,5 7,1 10,4 7 4 18 10 E 1029,3 1,3 0 0,0
14.11.2018 23:00:00 3,5 3,2 3,7 5,6 7,2 10,4 8 4 14 8 ESE 1029,5 3,1 0 0,0
14.11.2018 22:00:00 3,6 3,4 3,7 5,7 7,3 10,4 6 3 21 11 ESE 1029,7 4,2 0 0,0
14.11.2018 21:00:00 4,0 3,5 4,0 5,9 7,4 10,4 9 5 19 10 SE 1029,8 3,4 0 0,0
14.11.2018 20:00:00 4,4 3,8 4,4 5,8 7,5 10,4 11 6 21 11 E 1030,0 6 0 0,0
14.11.2018 19:00:00 4,6 4,0 4,3 5,6 7,7 10,4 12 7 18 10 E 1030,1 7 0 0,0
14.11.2018 18:00:00 5,5 4,2 3,2 5,9 7,9 10,5 5 3 22 12 E 1029,6 15 0 0,0
14.11.2018 17:00:00 7,3 4,6 5,7 7,2 8,0 10,4 10 5 17 9 E 1029,1 45 15 0,0
14.11.2018 16:00:00 9,7 5,1 7,9 8,6 7,9 10,4 8 5 14 8 E 1028,9 70 60 0,0
14.11.2018 15:00:00 10,9 4,6 12,3 9,7 7,5 10,5 7 4 15 8 ESE 1028,5 62 60 0,0
14.11.2018 14:00:00 11,0 5,0 12,0 10,1 7,0 10,5 9 5 16 9 ESE 1028,8 46 60 0,0
14.11.2018 13:00:00 10,8 5,3 13,4 10,1 6,4 10,5 8 4 19 10 SE 1029,1 41 60 0,0
14.11.2018 12:00:00 9,8 5,1 11,9 9,2 6,0 10,5 10 6 18 10 SE 1029,8 35 60 0,0
14.11.2018 11:00:00 8,6 5,2 9,2 6,7 5,7 10,5 6 3 10 5 SE 1030,6 47 60 0,0
14.11.2018 10:00:00 4,1 2,3 5,4 3,8 5,7 10,5 2 1 3 2 WSW 1031,9 12 60 0,0
14.11.2018 09:00:00 0,4 -0,5 -0,7 2,5 5,9 10,5 0 0 2 1 N 1032,9 7 35 0,0
14.11.2018 08:00:00 -1,0 -1,3 -1,3 2,4 6,1 10,5 0 0 2 1 N 1033,3 0,4 0 0,0
14.11.2018 07:00:00 -0,8 -1,1 -1,7 2,8 6,3 10,5 0 0 2 1 N 1033,6 1,1 0 0,0
14.11.2018 06:00:00 -0,4 -0,7 -0,8 3,2 6,4 10,5 3 1 5 3 NW 1033,6 0,6 0 0,0
14.11.2018 05:00:00 -0,4 -0,6 -0,5 3,3 6,6 10,5 0 0 3 1 N 1033,6 0,3 0 0,0
14.11.2018 04:00:00 0,1 -0,2 -0,1 3,4 6,8 10,5 0 0 3 1 N 1033,8 0,2 0 0,0
14.11.2018 03:00:00 0,3 0,1 -0,1 3,6 7,0 10,5 2 1 4 2 N 1034,0 0,2 0 0,0
14.11.2018 02:00:00 0,7 0,5 -0,4 3,6 7,2 10,5 3 2 4 2 WNW 1033,9 0,4 0 0,0
14.11.2018 01:00:00 1,2 1,0 -0,3 3,7 7,5 10,5 0 0 3 2 N 1034,0 0,8 0 0,0
14.11.2018 00:00:00 1,8 1,8 -0,4 4,2 7,8 10,5 3 1 5 3 WNW 1034,0 0,5 0 0,0
13.11.2018 23:00:00 2,4 2,1 1,0 4,6 8,1 10,5 3 1 5 3 E 1033,8 0,3 0 0,0
13.11.2018 22:00:00 3,4 3,2 0,7 5,1 8,4 10,5 1 1 5 3 N 1033,5 0,3 0 0,0
13.11.2018 21:00:00 4,6 4,2 1,6 5,7 8,7 10,5 2 1 6 3 S 1032,9 1,1 0 0,0
13.11.2018 20:00:00 5,5 5,5 4,0 6,3 9,0 10,5 0 0 3 2 N 1032,5 0,5 0 0,0
13.11.2018 19:00:00 5,9 5,7 3,2 7,1 9,2 10,5 2 1 6 4 NE 1032,1 23 0 0,0
13.11.2018 18:00:00 6,5 6,1 4,1 7,5 9,5 10,5 2 1 10 5 W 1031,4 67 0 0,0
13.11.2018 17:00:00 7,7 7,0 4,4 8,8 9,6 10,5 4 2 11 6 W 1030,6 70 14 0,0
13.11.2018 16:00:00 9,9 6,2 8,3 10,0 9,6 10,5 8 4 24 13 W 1029,5 70 24 0,0
13.11.2018 15:00:00 10,4 7,4 11,8 10,9 9,4 10,5 8 4 29 16 W 1029,1 70 12 0,0
13.11.2018 14:00:00 9,9 8,4 9,8 10,7 9,3 10,5 6 4 19 10 WSW 1028,7 70 0 0,1
13.11.2018 13:00:00 10,1 8,5 10,0 10,7 9,1 10,5 9 5 22 12 W 1028,2 44 0 0,0
13.11.2018 12:00:00 9,9 8,6 9,8 10,3 9,0 10,5 9 5 17 9 SW 1027,8 55 0 0,1
13.11.2018 11:00:00 10,0 9,0 9,9 9,6 8,9 10,5 7 4 16 9 SSW 1027,3 35 0 0,4
13.11.2018 10:00:00 9,6 8,9 9,5 9,2 8,8 10,5 4 2 15 8 WSW 1027,4 9 0 0,4
13.11.2018 09:00:00 9,5 8,7 9,1 8,9 8,8 10,5 5 3 19 10 WSW 1026,3 11 0 0,6
13.11.2018 08:00:00 9,8 8,8 9,2 8,8 8,7 10,5 10 5 21 11 W 1025,4 6 0 0,3
13.11.2018 07:00:00 10,1 9,1 9,3 8,9 8,7 10,5 5 3 10 6 W 1024,0 25 0 0,3
13.11.2018 06:00:00 10,7 9,7 9,9 8,9 8,6 10,5 5 3 16 9 W 1023,5 10 0 0,0
13.11.2018 05:00:00 11,3 9,9 10,3 8,6 8,5 10,5 3 1 15 8 NW 1022,4 39 0 0,0
13.11.2018 04:00:00 11,6 10,4 10,2 8,4 8,5 10,5 4 2 17 9 WSW 1021,6 63 0 0,2
13.11.2018 03:00:00 8,8 8,4 8,0 8,1 8,5 10,5 0 0 4 2 N 1022,3 28 0 0,2
13.11.2018 02:00:00 8,9 8,5 8,2 8,1 8,5 10,5 0 0 5 3 N 1021,9 17 0 0,5
13.11.2018 01:00:00 9,0 8,2 8,4 8,1 8,5 10,5 0 0 3 1 N 1021,4 33 0 0,0
13.11.2018 00:00:00 8,8 8,2 8,0 7,9 8,6 10,5 0 0 2 1 N 1021,7 63 0 0,0
12.11.2018 23:00:00 8,4 8,0 7,4 7,6 8,7 10,5 0 0 3 2 N 1021,7 39 0 0,0
12.11.2018 22:00:00 8,6 8,2 6,2 7,7 8,8 10,5 0 0 4 2 N 1021,4 49 0 0,0
12.11.2018 21:00:00 8,9 8,5 7,2 7,8 8,9 10,5 2 1 4 2 WNW 1021,3 54 0 0,0
12.11.2018 20:00:00 8,9 8,6 7,7 8,0 9,0 10,5 2 1 4 2 NW 1021,0 37 0 0,0
12.11.2018 19:00:00 9,2 9,0 6,7 8,0 9,2 10,5 0 0 3 2 N 1020,7 35 0 0,0
12.11.2018 18:00:00 9,9 9,2 5,9 8,7 9,3 10,5 0 0 3 2 N 1020,0 48 0 0,0
12.11.2018 17:00:00 11,3 10,0 6,8 9,6 9,3 10,5 2 1 4 2 ENE 1019,0 70 12 0,0
12.11.2018 16:00:00 13,4 9,7 9,7 10,9 9,2 10,5 2 1 4 2 N 1018,2 70 32 0,0
12.11.2018 15:00:00 13,8 11,3 13,9 11,3 8,9 10,5 0 0 5 3 N 1017,9 70 1 0,0
12.11.2018 14:00:00 14,4 11,2 13,7 11,4 8,6 10,5 4 2 6 4 SSE 1017,9 70 0 0,0
12.11.2018 13:00:00 17,0 7,8 15,7 11,8 8,1 10,5 4 2 11 6 SSW 1017,2 70 1 0,0
12.11.2018 12:00:00 17,4 7,6 17,4 11,9 7,6 10,5 5 3 12 7 SSW 1016,9 70 13 0,0
12.11.2018 11:00:00 16,3 7,3 15,7 10,2 7,2 10,5 5 3 11 6 SSE 1016,6 70 47 0,0
12.11.2018 10:00:00 13,3 7,3 12,9 6,9 7,1 10,5 5 3 11 6 SE 1017,0 70 60 0,0
12.11.2018 09:00:00 8,2 7,0 4,5 4,7 7,2 10,5 4 2 5 3 E 1017,8 37 57 0,0
12.11.2018 08:00:00 5,0 5,0 2,5 4,5 7,4 10,5 0 0 5 3 N 1018,3 35 0 0,0
12.11.2018 07:00:00 5,0 4,7 2,0 4,8 7,6 10,5 0 0 4 2 N 1018,2 1,8 0 0,0
12.11.2018 06:00:00 5,9 5,9 2,3 5,2 7,8 10,5 2 1 4 2 NW 1017,9 0,4 0 0,0
12.11.2018 05:00:00 6,1 6,1 4,0 5,4 8,0 10,5 2 1 4 2 WNW 1017,8 2,2 0 0,0
12.11.2018 04:00:00 6,6 6,4 3,4 5,7 8,2 10,5 2 1 4 2 NW 1018,0 25 0 0,0
12.11.2018 03:00:00 7,2 7,1 3,4 6,0 8,4 10,5 3 1 4 2 NW 1018,2 10 0 0,0
12.11.2018 02:00:00 7,7 7,6 4,3 6,4 8,5 10,5 2 1 11 6 NNW 1018,2 0,5 0 0,0
12.11.2018 01:00:00 8,8 7,5 6,4 7,0 8,7 10,5 4 2 12 6 SSE 1018,1 50 0 0,0
12.11.2018 00:00:00 10,9 8,1 8,1 7,5 8,8 10,5 8 4 16 8 SSE 1017,4 53 0 0,0
11.11.2018 23:00:00 10,4 8,6 7,2 8,0 8,9 10,5 4 2 11 6 SSE 1017,5 49 0 0,0
11.11.2018 22:00:00 9,6 8,8 7,9 8,0 9,0 10,5 4 2 11 6 SSE 1017,3 30 0 0,0
11.11.2018 21:00:00 9,2 8,8 7,0 8,1 9,1 10,5 2 1 11 6 NE 1016,9 13 0 0,0
11.11.2018 20:00:00 9,5 8,9 8,0 8,4 9,2 10,5 3 2 8 5 SSE 1016,2 17 0 0,0
11.11.2018 19:00:00 8,5 8,5 7,7 8,2 9,4 10,5 0 0 4 2 N 1016,3 3,3 0 0,0
11.11.2018 18:00:00 9,0 8,7 5,5 8,6 9,5 10,5 3 1 5 3 NW 1015,7 1,8 0 0,0
11.11.2018 17:00:00 10,3 9,0 6,8 10,1 9,5 10,5 3 1 8 5 ESE 1014,7 66 3 0,0
11.11.2018 16:00:00 12,2 9,3 11,0 11,1 9,4 10,5 4 2 12 7 SSE 1014,4 70 0 0,0
11.11.2018 15:00:00 12,8 9,4 12,1 11,5 9,1 10,5 4 2 12 6 S 1014,1 58 0 0,0
11.11.2018 14:00:00 13,3 8,5 13,3 11,5 8,8 10,5 6 3 11 6 SSW 1013,4 53 0 0,0
11.11.2018 13:00:00 12,8 8,9 13,0 11,1 8,5 10,5 6 3 18 10 S 1013,5 63 1 0,0
11.11.2018 12:00:00 12,1 8,5 12,0 10,2 8,3 10,5 9 5 17 9 SSW 1013,9 70 2 0,0
11.11.2018 11:00:00 12,0 8,7 11,3 9,8 8,1 10,5 9 5 17 9 SSW 1013,8 49 33 0,0
11.11.2018 10:00:00 9,7 8,4 8,7 8,1 8,1 10,5 5 3 26 14 SSW 1013,9 20 0 0,0
11.11.2018 09:00:00 9,5 8,2 8,7 7,6 8,0 10,5 12 6 23 13 SSW 1013,7 24 0 1,4
11.11.2018 08:00:00 8,1 7,1 7,5 7,1 8,1 10,5 5 3 11 6 S 1012,4 20 0 0,4
11.11.2018 07:00:00 6,7 6,5 6,0 6,9 8,2 10,5 2 1 6 4 N 1011,7 2,0 0 0,0
11.11.2018 06:00:00 7,0 6,7 5,9 7,3 8,2 10,5 2 1 4 2 NNW 1011,8 3,9 0 0,2
11.11.2018 05:00:00 7,1 6,7 6,8 7,3 8,2 10,5 2 1 5 3 SSE 1011,8 8 0 0,0
11.11.2018 04:00:00 6,7 6,3 6,5 7,3 8,3 10,5 0 0 6 4 N 1012,1 5 0 0,0
11.11.2018 03:00:00 6,8 6,1 6,4 7,4 8,3 10,5 3 1 8 5 WSW 1012,2 8 0 0,4
11.11.2018 02:00:00 6,6 5,7 6,3 7,4 8,4 10,5 2 1 5 3 WNW 1012,2 12 0 0,0
11.11.2018 01:00:00 6,6 5,6 6,0 7,4 8,5 10,5 3 1 5 3 S 1011,7 11 0 0,0
11.11.2018 00:00:00 6,8 5,3 6,3 7,6 8,6 10,5 4 2 7 4 E 1010,9 15 0 0,0
10.11.2018 23:00:00 7,3 5,8 6,7 7,8 8,7 10,5 2 1 5 3 SE 1011,0 16 0 0,0
10.11.2018 22:00:00 7,4 6,0 6,8 7,9 8,8 10,5 3 2 5 3 ENE 1010,8 17 0 0,0
10.11.2018 21:00:00 7,6 6,2 6,9 8,1 8,9 10,5 3 2 5 3 E 1010,8 16 0 0,0
10.11.2018 20:00:00 8,2 6,2 7,1 8,2 9,0 10,5 3 2 9 5 SE 1010,9 16 0 0,0
10.11.2018 19:00:00 8,7 6,4 8,0 8,5 9,1 10,5 6 3 16 9 E 1010,5 16 0 0,0
10.11.2018 18:00:00 9,1 7,6 5,8 8,9 9,2 10,6 2 1 9 5 E 1010,3 5 0 0,0
10.11.2018 17:00:00 10,2 8,7 7,2 10,0 9,2 10,5 0 0 5 3 N 1010,0 42 0 0,0
10.11.2018 16:00:00 12,6 8,7 10,0 11,3 9,0 10,5 2 1 10 6 ENE 1009,2 58 0 0,0
10.11.2018 15:00:00 14,5 7,9 14,4 12,1 8,6 10,6 7 4 11 6 SE 1008,8 44 33 0,0
10.11.2018 14:00:00 15,1 7,1 15,6 12,4 8,1 10,5 5 3 11 6 SSE 1008,5 34 60 0,0
10.11.2018 13:00:00 13,9 7,1 16,1 12,1 7,5 10,6 6 3 12 7 SE 1009,2 30 60 0,0
10.11.2018 12:00:00 12,2 7,4 12,5 10,3 7,0 10,6 6 4 11 6 SSE 1009,9 23 12 0,0
10.11.2018 11:00:00 9,5 7,4 9,8 8,2 6,7 10,6 2 1 5 3 SE 1010,8 14 0 0,0
10.11.2018 10:00:00 7,6 6,8 8,2 6,9 6,5 10,6 3 1 4 2 N 1011,1 11 0 0,0
10.11.2018 09:00:00 5,5 5,2 5,5 5,4 6,5 10,6 2 1 3 2 E 1011,5 4,4 0 0,0
10.11.2018 08:00:00 4,5 4,4 4,2 4,6 6,5 10,6 2 1 6 3 WNW 1011,8 2,6 0 0,0
10.11.2018 07:00:00 3,4 3,2 3,1 4,1 6,6 10,6 2 1 6 4 ENE 1011,5 1,9 0 0,0
10.11.2018 06:00:00 3,0 2,8 1,9 3,8 6,7 10,6 4 2 7 4 SE 1012,5 1,7 0 0,0
10.11.2018 05:00:00 4,5 4,5 1,9 3,9 6,9 10,6 4 2 7 4 S 1012,3 3,4 0 0,0

tt = temperature
td = dewpoint
tt 5cm = temperature 5cm
tt -5cm = temperature -5cm
tt -20cm = temperature -20cm
tt -100cm = temperature -100cm
ff = wind speed
fx = gusts
dd = wind direction
ppp = reduced air pressure
vv = visibility
sd = sunshine duration
rr = precipitation

Next stations